DateTimeUTC,F1_A11,F1_S11,BsB_S11,BsG_S11,BsR_S11,BbsB_S11,BbsG_S11,BbsR_S11,BaB_A11,BaG_A11,BaR_A11,Tu_S11,T_S11,Uu_S11,U_S11,P_S11,T1_A11
2021-01-08T08:00:00Z,00000200,21000000,,,,,,,0000.08,-000.23,0000.02,15.0,22.1,,00.0,0636.6,30.7
2021-01-08T08:01:00Z,00000200,21000000,,,,,,,0000.01,-000.10,-000.09,15.0,22.2,,00.0,0636.6,30.7
2021-01-08T08:02:00Z,00000200,21000000,,,,,,,-000.44,-000.07,0000.08,14.9,22.2,,00.0,0636.6,30.7
2021-01-08T08:03:00Z,00000200,61000000,,,,,,,0000.11,-000.04,-000.01,14.9,22.2,,00.0,0636.6,30.7
2021-01-08T08:04:00Z,00000200,41000000,0000.97,0000.09,-000.08,-000.17,-000.15,0000.15,0000.27,0000.32,0000.15,15.0,21.9,,00.0,0637.5,30.7
2021-01-08T08:05:00Z,00000200,01000000,0000.61,0000.16,0000.12,0000.32,0000.14,0000.01,0000.20,0000.19,-000.10,15.1,21.8,,00.0,0637.5,30.7
2021-01-08T08:06:00Z,00000200,01000000,0000.59,0000.46,0000.12,-000.47,0000.21,0000.13,0000.29,0000.14,0000.15,15.2,21.8,,00.0,0637.5,30.7
2021-01-08T08:07:00Z,00000200,01000000,0000.01,0000.28,0000.14,-000.06,-000.07,-000.02,-000.11,0000.18,0000.20,15.2,21.8,,00.0,0637.5,30.7
2021-01-08T08:08:00Z,00000200,01000000,-000.14,0000.08,0000.05,-000.03,0000.04,-000.04,-000.12,-000.32,-000.05,15.2,21.9,,00.0,0637.5,30.7
2021-01-08T08:09:00Z,00000200,01000000,-000.38,0000.20,0000.28,-000.55,-000.00,-000.09,0000.28,0000.21,0000.15,15.3,21.9,,00.0,0637.6,30.7
2021-01-08T08:10:00Z,00000200,01000000,0000.45,0000.05,-000.14,-000.04,0000.01,0000.19,-000.28,0000.26,0000.01,15.3,21.9,,00.0,0637.6,30.7
2021-01-08T08:11:00Z,00000200,01000000,0000.83,0000.06,0000.20,-000.45,-000.05,0000.07,0000.21,-000.18,-000.24,15.3,21.9,,00.0,0637.6,30.7
2021-01-08T08:12:00Z,00000200,01000000,-000.36,0000.11,0000.08,0000.42,0000.27,0000.05,-000.09,-000.32,0000.40,15.3,21.9,,00.0,0637.6,30.7
2021-01-08T08:13:00Z,00000200,01000000,0000.23,0000.21,0000.26,-000.16,-000.12,0000.14,-000.01,0000.37,-000.33,15.2,21.8,,00.0,0637.7,30.7
2021-01-08T08:14:00Z,00000200,01000000,-000.07,0000.30,0000.25,-000.00,-000.01,0000.26,-000.07,-000.10,0000.01,15.1,21.8,,00.0,0637.7,30.7
2021-01-08T08:15:00Z,00000200,01000000,0000.06,0000.27,0000.16,0000.39,0000.25,-000.08,0000.18,-000.04,-000.16,15.0,21.7,,00.0,0637.7,30.7
2021-01-08T08:16:00Z,00000200,01000000,0000.53,0000.00,-000.10,0000.34,0000.11,0000.04,-000.02,-000.26,-000.12,14.9,21.7,,00.0,0637.7,30.6
2021-01-08T08:17:00Z,00000200,01000000,0000.04,0000.04,0000.24,0000.09,0000.05,0000.03,0000.03,-000.01,0000.36,14.8,21.7,,00.0,0637.7,30.6
2021-01-08T08:18:00Z,00000200,01000000,0000.92,-000.18,0000.15,0000.35,0000.09,-000.04,-000.17,-000.08,0000.03,14.8,21.6,,00.0,0637.7,30.6
2021-01-08T08:19:00Z,00000200,01000000,0000.10,0000.13,0000.29,0000.10,-000.12,0000.01,0000.44,0000.24,-000.00,14.8,21.6,,00.0,0637.7,30.6
2021-01-08T08:20:00Z,00000200,01000000,0000.53,-000.06,-000.04,0000.29,-000.13,0000.03,-000.28,0000.40,-000.20,14.8,21.6,,00.0,0637.8,30.7
2021-01-08T08:21:00Z,00000200,01000000,0000.55,0000.32,0000.03,-000.09,0000.01,0000.17,-000.06,-000.46,0000.31,14.9,21.6,,00.0,0637.8,30.7
2021-01-08T08:22:00Z,00000200,01000000,0000.57,0000.30,0000.13,0000.13,0000.11,0000.14,0000.33,0000.33,-000.11,14.9,21.7,,00.0,0637.8,30.7
2021-01-08T08:23:00Z,00000200,01000000,0000.37,0000.38,0000.21,0000.16,0000.06,0000.08,0000.06,0000.06,0000.04,15.0,21.7,,00.0,0637.8,30.7
2021-01-08T08:24:00Z,00000200,01000000,0000.55,0000.27,-000.06,-000.40,0000.26,-000.01,-000.18,-000.09,-000.06,15.0,21.7,,00.0,0637.8,30.7
2021-01-08T08:25:00Z,00000200,01000000,0001.10,0000.37,0000.47,0000.16,0000.09,0000.11,0000.13,0000.31,0000.10,15.0,21.7,,00.0,0637.8,30.7
2021-01-08T08:26:00Z,00000200,01000000,0000.27,0000.13,0000.14,-000.10,0000.05,0000.09,-000.01,-000.21,-000.10,14.9,21.6,,00.0,0637.9,30.7
2021-01-08T08:27:00Z,00000200,01000000,-000.03,0000.40,0000.31,-000.49,0000.07,0000.23,-000.15,-000.26,0000.25,14.8,21.6,,00.0,0637.9,30.6
2021-01-08T08:28:00Z,00000200,01000000,0000.92,0000.26,0000.08,-000.41,0000.13,0000.16,0000.35,0000.35,-000.35,14.8,21.6,,00.0,0637.8,30.6
2021-01-08T08:29:00Z,00000200,01000000,0001.15,-000.01,0000.25,-000.07,0000.17,0000.19,-000.36,-000.27,0000.27,14.7,21.5,,00.0,0637.8,30.6
2021-01-08T08:30:00Z,00000200,01000000,0000.58,0000.18,0000.24,0000.30,0000.10,0000.20,-000.02,-000.15,-000.33,14.6,21.5,,00.0,0637.8,30.6
2021-01-08T08:31:00Z,00000200,01000000,0000.65,0000.52,-000.00,-000.11,0000.20,0000.08,0000.26,-000.12,0000.33,14.5,21.4,,00.0,0637.8,30.6
2021-01-08T08:32:00Z,00000200,01000000,0000.39,0000.11,0000.24,0000.26,0000.05,0000.08,-000.50,-000.02,-000.02,14.4,21.4,,00.0,0637.8,30.6
2021-01-08T08:33:00Z,00000200,01000000,0000.87,0000.33,0000.33,0000.42,0000.33,0000.40,0000.39,0000.34,-000.07,14.4,21.3,,00.0,0637.9,30.6
2021-01-08T08:34:00Z,00000200,01000000,0000.04,0000.09,-000.02,-000.10,0000.07,0000.04,0000.32,0000.23,0000.04,14.4,21.3,,00.0,0637.9,30.6
2021-01-08T08:35:00Z,00000200,01000000,0000.27,0000.34,0000.18,-000.18,-000.01,0000.20,0000.01,-000.19,0000.23,14.5,21.3,,00.0,0637.9,30.6
2021-01-08T08:36:00Z,00000200,01000000,0000.83,0000.41,-000.02,-000.02,0000.18,-000.05,-000.11,0000.47,0000.08,14.5,21.3,,00.0,0637.9,30.6
2021-01-08T08:37:00Z,00000200,01000000,0000.53,0000.17,-000.02,-000.18,0000.26,-000.08,0000.19,-000.01,0000.12,14.6,21.3,,00.0,0638.0,30.6
2021-01-08T08:38:00Z,00000200,01000000,0000.83,0000.11,0000.12,0000.04,0000.28,0000.15,0000.14,0000.04,0000.13,14.6,21.4,,00.0,0638.0,30.7
2021-01-08T08:39:00Z,00000200,01000000,-000.27,0000.20,0000.34,-000.02,0000.10,0000.17,-000.04,0000.14,-000.16,14.7,21.4,,00.0,0638.0,30.7
2021-01-08T08:40:00Z,00000200,01000000,0000.47,0000.41,0000.12,0000.07,0000.31,0000.19,0000.06,0000.24,-000.01,14.7,21.4,,00.0,0638.0,30.7
2021-01-08T08:41:00Z,00000200,01000000,0000.39,0000.17,0000.06,-000.13,0000.06,0000.06,-000.07,-000.39,0000.06,14.8,21.4,,00.0,0638.0,30.7
2021-01-08T08:42:00Z,00000200,01010000,0000.68,-000.14,0000.12,0000.29,0000.16,0000.05,0000.44,0000.27,0000.16,14.8,21.4,,00.0,0638.1,30.7
2021-01-08T08:43:00Z,00000200,01000000,0000.27,0000.20,0000.12,0000.06,-000.04,-000.03,-000.39,-000.04,-000.44,14.8,21.4,,00.0,0638.1,30.7
2021-01-08T08:44:00Z,00000200,01000000,0000.31,-000.01,0000.04,-000.61,-000.02,0000.10,-000.10,-000.28,0000.20,14.8,21.4,,00.0,0638.0,30.7
2021-01-08T08:45:00Z,00000200,01000000,0000.60,-000.10,0000.15,-000.46,-000.28,0000.08,0000.22,0000.01,0000.18,14.8,21.4,,00.0,0638.1,30.7
2021-01-08T08:46:00Z,00000200,01000000,0000.59,0000.05,0000.11,-000.42,-000.07,0000.01,-000.08,-000.14,-000.16,14.7,21.4,,00.0,0638.1,30.6
2021-01-08T08:47:00Z,00000200,01000000,0000.30,0000.17,0000.17,0000.55,0000.28,0000.01,-000.18,0000.06,-000.08,14.6,21.3,,00.0,0638.1,30.6
2021-01-08T08:48:00Z,00000200,01000000,-000.07,0000.17,0000.09,0000.26,0000.10,0000.15,0000.22,0000.22,0000.19,14.6,21.3,,00.0,0638.0,30.6
2021-01-08T08:49:00Z,00000200,01000000,0000.44,0000.09,0000.07,0000.15,0000.01,0000.16,-000.02,0000.10,-000.06,14.6,21.3,,00.0,0638.0,30.6
2021-01-08T08:50:00Z,00000200,01000000,0000.71,0000.33,0000.40,0000.46,0000.27,0000.12,0000.35,0000.17,0000.09,14.6,21.3,,00.0,0638.1,30.7
2021-01-08T08:51:00Z,00000200,01000000,0000.04,0000.06,0000.34,0000.29,-000.15,0000.21,0000.13,-000.13,0000.15,14.7,21.3,,00.0,0638.1,30.7
2021-01-08T08:52:00Z,00000200,01000000,-000.16,0000.21,0000.17,-000.51,0000.26,0000.09,-000.11,0000.10,0000.04,14.7,21.3,,00.0,0638.1,30.7
2021-01-08T08:53:00Z,00000200,01000000,0000.56,-000.01,0000.17,0000.47,0000.01,-000.11,-000.02,-000.07,-000.06,14.8,21.4,,00.0,0638.1,30.7
2021-01-08T08:54:00Z,00000200,01000000,0000.37,0000.31,0000.29,-000.16,-000.06,0000.08,0000.17,0000.31,0000.14,14.8,21.4,,00.0,0638.1,30.7
2021-01-08T08:55:00Z,00000200,01000000,0001.04,0000.08,0000.29,-000.05,0000.16,0000.12,-000.51,-000.08,-000.06,14.8,21.4,,00.0,0638.1,30.7
2021-01-08T08:56:00Z,00000200,01000000,0000.47,0000.15,0000.27,0000.18,0000.26,0000.16,0000.61,0000.05,0000.07,14.9,21.4,,00.0,0638.1,30.7
2021-01-08T08:57:00Z,00000200,41000000,,,,,,,0000.79,0000.85,0000.92,14.9,21.5,,00.0,0638.1,30.7
2021-01-08T08:58:00Z,00000200,61000000,,,,,,,-000.45,-000.11,-000.23,14.6,21.6,,00.0,0637.2,30.7
2021-01-08T08:59:00Z,00000200,21000000,,,,,,,-000.31,-000.28,-000.41,14.6,21.7,,00.0,0637.2,30.7
